• In Belarus
  • List of Countries
  • For 7 days
  • Water Temperature
  • Satellite Maps
  • Weather Map
  • Weather Widgets
  • user-avatar
    Login

    Hourly Weather Naru

    Today, 22 February, Friday

    Time Temperature Precipitation Wind Pressure Humidity
    00:00 +27°C° 0 mm 1 mps 743 mmHg 61%
    01:00 +26°C° 0 mm 1 mps 743 mmHg 66%
    02:00 +26°C° 0 mm 1 mps 743 mmHg 67%
    03:00 +26°C° 0 mm 1 mps 743 mmHg 69%
    04:00 +23°C° 0 mm 0 mps 742 mmHg 70%
    05:00 +24°C° 0 mm 0 mps 743 mmHg 71%
    06:00 +26°C° 0 mm 1 mps 743 mmHg 71%
    07:00 +24°C° 0 mm 0 mps 744 mmHg 71%
    08:00 +29°C° 0 mm 1 mps 744 mmHg 62%
    09:00 +32°C° 0 mm 1 mps 744 mmHg 53%
    10:00 +35°C° 0 mm 1 mps 745 mmHg 44%
    11:00 +35°C° 0 mm 1 mps 744 mmHg 42%
    12:00 +36°C° 0 mm 1 mps 744 mmHg 40%
    13:00 +34°C° 0 mm 0 mps 743 mmHg 37%
    14:00 +36°C° 0 mm 1 mps 743 mmHg 39%
    15:00 +35°C° 0 mm 1 mps 742 mmHg 40%
    16:00 +35°C° 0 mm 1 mps 742 mmHg 41%
    17:00 +34°C° 0 mm 2 mps 742 mmHg 49%
    18:00 +31°C° 0 mm 2 mps 742 mmHg 56%
    19:00 +30°C° 0 mm 2 mps 742 mmHg 64%
    20:00 +28°C° 0 mm 2 mps 742 mmHg 70%
    21:00 +27°C° 0 mm 1 mps 743 mmHg 76%
    22:00 +26°C° 0 mm 1 mps 743 mmHg 81%
    23:00 +25°C° 0 mm 1 mps 743 mmHg 85%

    Tomorrow, 23 February, Saturday

    Time Temperature Precipitation Wind Pressure Humidity
    00:00 +25°C° 0 mm 1 mps 742 mmHg 88%
    01:00 +24°C° 0 mm 1 mps 742 mmHg 91%
    02:00 +24°C° 0 mm 1 mps 742 mmHg 92%
    03:00 +24°C° 0 mm 1 mps 742 mmHg 93%
    04:00 +23°C° 0 mm 1 mps 741 mmHg 94%
    05:00 +24°C° 0 mm 1 mps 742 mmHg 92%
    06:00 +22°C° 0 mm 0 mps 742 mmHg 89%
    07:00 +22°C° 0 mm 0 mps 742 mmHg 87%
    08:00 +25°C° 0 mm 0 mps 743 mmHg 75%
    09:00 +28°C° 0 mm 0 mps 743 mmHg 63%
    10:00 +31°C° 0 mm 0 mps 744 mmHg 51%
    11:00 +33°C° 0 mm 1 mps 743 mmHg 49%
    12:00 +33°C° 0 mm 1 mps 742 mmHg 46%
    13:00 +34°C° 0 mm 1 mps 741 mmHg 44%
    14:00 +35°C° 0 mm 1 mps 741 mmHg 40%
    15:00 +36°C° 0 mm 1 mps 740 mmHg 36%
    16:00 +37°C° 0 mm 1 mps 740 mmHg 32%
    17:00 +35°C° 0 mm 1 mps 740 mmHg 37%
    18:00 +33°C° 0 mm 1 mps 740 mmHg 43%
    19:00 +29°C° 0 mm 0 mps 741 mmHg 48%
    20:00 +28°C° 0 mm 0 mps 741 mmHg 52%
    21:00 +29°C° 0 mm 1 mps 741 mmHg 56%
    22:00 +28°C° 0 mm 1 mps 742 mmHg 60%
    23:00 +27°C° 0 mm 1 mps 741 mmHg 65%

    Day after tomorrow, 24 February, Sunday

    Time Temperature Precipitation Wind Pressure Humidity
    00:00 +26°C° 0 mm 1 mps 741 mmHg 69%
    01:00 +25°C° 0 mm 1 mps 741 mmHg 74%
    02:00 +25°C° 0 mm 1 mps 741 mmHg 76%
    03:00 +25°C° 0 mm 1 mps 741 mmHg 79%
    04:00 +24°C° 0 mm 1 mps 740 mmHg 81%
    05:00 +25°C° 0 mm 1 mps 741 mmHg 80%
    06:00 +25°C° 0 mm 1 mps 741 mmHg 80%
    07:00 +25°C° 0 mm 1 mps 742 mmHg 79%
    08:00 +28°C° 0 mm 1 mps 743 mmHg 67%
    09:00 +32°C° 0 mm 1 mps 743 mmHg 54%
    10:00 +35°C° 0 mm 1 mps 744 mmHg 41%
    11:00 +36°C° 0 mm 1 mps 743 mmHg 38%
    12:00 +39°C° 0 mm 1 mps 742 mmHg 34%
    13:00 +40°C° 0 mm 2 mps 741 mmHg 30%
    14:00 +39°C° 0 mm 1 mps 741 mmHg 32%
    15:00 +37°C° 0 mm 1 mps 740 mmHg 34%
    16:00 +34°C° 0 mm 0 mps 740 mmHg 35%
    17:00 +33°C° 0 mm 0 mps 740 mmHg 41%
    18:00 +31°C° 0 mm 0 mps 740 mmHg 46%
    19:00 +31°C° 0 mm 1 mps 741 mmHg 51%
    20:00 +30°C° 0 mm 1 mps 741 mmHg 59%
    21:00 +28°C° 0 mm 1 mps 742 mmHg 67%
    22:00 +27°C° 0 mm 1 mps 742 mmHg 75%
    23:00 +26°C° 0 mm 1 mps 742 mmHg 80%

    25 February, Monday

    Time Temperature Precipitation Wind Pressure Humidity
    00:00 +26°C° 0 mm 1 mps 742 mmHg 85%
    01:00 +25°C° 0 mm 1 mps 742 mmHg 90%
    02:00 +25°C° 0 mm 1 mps 741 mmHg 91%
    03:00 +24°C° 0 mm 1 mps 741 mmHg 92%
    04:00 +24°C° 0 mm 1 mps 741 mmHg 94%
    05:00 +24°C° 0 mm 1 mps 741 mmHg 92%
    06:00 +24°C° 0 mm 1 mps 742 mmHg 90%
    07:00 +24°C° 0 mm 1 mps 743 mmHg 89%
    08:00 +28°C° 0 mm 1 mps 743 mmHg 73%
    09:00 +32°C° 0 mm 1 mps 744 mmHg 58%
    10:00 +36°C° 0 mm 1 mps 744 mmHg 42%
    11:00 +37°C° 0 mm 1 mps 743 mmHg 39%
    12:00 +39°C° 0 mm 1 mps 743 mmHg 35%
    13:00 +40°C° 0 mm 1 mps 742 mmHg 31%
    14:00 +39°C° 0 mm 1 mps 741 mmHg 34%
    15:00 +36°C° 0 mm 1 mps 741 mmHg 36%
    16:00 +33°C° 0 mm 0 mps 740 mmHg 39%
    17:00 +34°C° 0 mm 1 mps 741 mmHg 44%
    18:00 +32°C° 0 mm 1 mps 741 mmHg 48%
    19:00 +31°C° 0 mm 1 mps 741 mmHg 53%
    20:00 +30°C° 0 mm 1 mps 742 mmHg 61%
    21:00 +28°C° 0 mm 1 mps 742 mmHg 69%
    22:00 +27°C° 0 mm 1 mps 743 mmHg 77%
    23:00 +26°C° 0 mm 1 mps 743 mmHg 82%

    26 February, Tuesday

    Time Temperature Precipitation Wind Pressure Humidity
    00:00 +25°C° 0 mm 1 mps 742 mmHg 86%
    01:00 +25°C° 0 mm 1 mps 742 mmHg 91%
    02:00 +24°C° 0 mm 1 mps 742 mmHg 92%
    03:00 +24°C° 0 mm 1 mps 742 mmHg 93%
    04:00 +23°C° 0 mm 1 mps 741 mmHg 94%
    05:00 +24°C° 0 mm 1 mps 742 mmHg 92%
    06:00 +24°C° 0 mm 1 mps 743 mmHg 89%
    07:00 +24°C° 0 mm 1 mps 743 mmHg 87%
    08:00 +28°C° 0 mm 1 mps 744 mmHg 71%
    09:00 +32°C° 0 mm 1 mps 744 mmHg 56%
    10:00 +35°C° 0 mm 1 mps 745 mmHg 40%
    11:00 +37°C° 0 mm 1 mps 744 mmHg 36%
    12:00 +39°C° 0 mm 1 mps 743 mmHg 32%
    13:00 +41°C° 0 mm 1 mps 742 mmHg 28%
    14:00 +40°C° 0 mm 1 mps 741 mmHg 29%
    15:00 +36°C° 0 mm 0 mps 741 mmHg 31%
    16:00 +35°C° 0 mm 0 mps 740 mmHg 33%
    17:00 +35°C° 0 mm 1 mps 741 mmHg 38%
    18:00 +33°C° 0 mm 1 mps 741 mmHg 43%
    19:00 +32°C° 0 mm 1 mps 742 mmHg 49%
    20:00 +30°C° 0 mm 1 mps 742 mmHg 56%
    21:00 +29°C° 0 mm 1 mps 743 mmHg 64%
    22:00 +28°C° 0 mm 1 mps 743 mmHg 72%
    23:00 +27°C° 0 mm 1 mps 742 mmHg 76%

    27 February, Wednesday

    Time Temperature Precipitation Wind Pressure Humidity
    00:00 +26°C° 0 mm 1 mps 742 mmHg 81%
    01:00 +23°C° 0 mm 0 mps 742 mmHg 85%
    02:00 +24°C° 0 mm 1 mps 742 mmHg 86%
    03:00 +24°C° 0 mm 1 mps 741 mmHg 87%
    04:00 +24°C° 0 mm 1 mps 741 mmHg 88%
    05:00 +24°C° 0 mm 1 mps 742 mmHg 86%
    06:00 +24°C° 0 mm 1 mps 742 mmHg 83%
    07:00 +24°C° 0 mm 1 mps 743 mmHg 81%
    08:00 +28°C° 0 mm 1 mps 743 mmHg 66%
    09:00 +32°C° 0 mm 1 mps 744 mmHg 51%
    10:00 +36°C° 0 mm 1 mps 744 mmHg 37%
    11:00 +37°C° 0 mm 1 mps 743 mmHg 33%
    12:00 +40°C° 0 mm 1 mps 742 mmHg 30%
    13:00 +42°C° 0 mm 1 mps 742 mmHg 26%
    14:00 +40°C° 0 mm 1 mps 741 mmHg 28%
    15:00 +36°C° 0 mm 0 mps 741 mmHg 30%
    16:00 +35°C° 0 mm 0 mps 740 mmHg 32%
    17:00 +33°C° 0 mm 0 mps 741 mmHg 36%
    18:00 +33°C° 0 mm 1 mps 741 mmHg 41%
    19:00 +32°C° 0 mm 1 mps 741 mmHg 45%
    20:00 +31°C° 0 mm 1 mps 741 mmHg 52%
    21:00 +29°C° 0 mm 1 mps 742 mmHg 58%
    22:00 +28°C° 0 mm 1 mps 742 mmHg 65%
    23:00 +28°C° 0 mm 1 mps 742 mmHg 68%
    Show more